Date,TemperatureHighF,TemperatureAvgF,TemperatureLowF,DewpointHighF,DewpointAvgF,DewpointLowF,HumidityHigh,HumidityAvg,HumidityLow,PressureMaxIn,PressureMinIn,WindSpeedMaxMPH,WindSpeedAvgMPH,GustSpeedMaxMPH,PrecipitationSumIn
2013-3-1,48.4,42.9,36.3,42.4,38.8,32.4,97,86,67,30.52,30.48,7,1,14,0.00
2013-3-2,48.7,41.3,31.5,37.6,35.2,29.9,96,80,64,30.48,30.29,9,1,11,0.00
2013-3-3,46.8,42.2,37.6,39.6,36.9,34.6,89,82,64,30.29,30.05,9,2,12,0.00
2013-3-4,43.2,39.5,29.7,36.8,34.4,28.1,95,82,71,30.05,29.73,10,3,13,0.00
2013-3-5,48.9,39.1,28.2,41.8,36.1,27.2,100,89,73,29.73,29.56,7,1,8,0.00
2013-3-6,47.7,43.5,40.0,45.5,42.1,38.7,100,95,92,29.56,29.45,5,1,5,0.14
2013-3-7,46.0,45.3,44.2,45.9,45.1,44.2,100,99,96,29.45,29.29,8,2,14,0.72
2013-3-8,47.5,46.2,45.0,47.5,46.0,45.0,100,99,97,29.50,29.28,12,3,17,0.30
2013-3-9,45.7,43.7,40.5,45.4,43.2,39.0,100,98,94,29.70,29.49,11,4,16,0.28
2013-3-10,40.5,38.7,34.7,39.0,32.0,20.2,95,78,54,29.94,29.70,21,10,33,0.02
2013-3-11,35.8,33.6,31.1,27.9,23.5,19.9,86,67,55,30.07,29.94,21,10,31,0.00
2013-3-12,43.0,37.1,33.3,32.2,27.3,20.4,86,68,55,30.09,29.98,16,6,26,0.00
2013-3-13,47.3,38.7,33.6,37.4,33.5,30.2,91,82,61,30.07,29.96,12,5,18,0.02
2013-3-14,49.5,41.0,32.4,41.8,35.4,28.8,88,81,68,30.08,29.73,12,4,19,0.02
2013-3-15,51.3,44.2,34.9,40.8,37.4,31.7,89,77,56,29.73,29.34,13,4,21,0.02
2013-3-16,48.0,39.3,31.6,39.7,34.7,29.6,95,84,68,29.34,29.26,13,2,14,0.02
2013-3-17,44.8,38.6,36.1,39.9,35.6,33.0,94,89,83,29.30,29.11,9,3,17,0.11
2013-3-18,44.8,39.5,36.3,39.5,37.0,34.1,96,91,77,29.44,29.16,12,4,19,0.22
2013-3-19,39.6,36.5,32.7,37.4,34.6,31.4,97,93,83,29.52,29.43,8,2,13,0.32
2013-3-20,45.0,39.0,35.2,40.5,36.8,33.9,97,92,80,29.88,29.52,10,2,18,0.14
2013-3-21,43.3,41.1,39.6,39.0,37.2,35.4,94,86,78,29.89,29.61,25,11,33,0.64
2013-3-22,41.5,40.8,38.5,40.0,39.0,37.2,95,93,88,29.70,29.52,21,9,34,2.63
2013-3-23,39.7,38.5,37.0,37.4,35.5,32.7,96,89,82,29.92,29.70,14,6,21,0.09
2013-3-24,37.0,36.2,35.2,32.8,30.3,28.3,85,79,73,30.07,29.92,18,10,26,0.00
2013-3-25,39.6,37.2,35.4,29.4,27.6,26.0,74,68,63,30.10,30.05,19,10,27,0.00
2013-3-26,39.4,36.6,34.0,31.6,27.7,23.9,84,70,62,30.10,30.01,16,8,23,0.00
2013-3-27,39.0,35.3,32.5,33.5,30.4,23.9,93,82,63,30.02,29.98,17,5,22,0.05
2013-3-28,42.3,37.5,33.3,30.8,28.2,24.7,90,69,56,30.00,29.92,13,6,18,0.07
2013-3-29,41.2,37.9,35.1,28.3,25.9,24.5,67,62,56,29.92,29.83,9,6,20,0.00
2013-3-30,43.6,39.9,35.8,28.8,26.0,23.2,67,58,48,29.96,29.86,8,5,17,0.00
2013-3-31,43.5,40.4,38.7,32.8,29.7,24.5,75,65,55,29.94,29.83,10,8,25,0.00